Time,TemperatureF,DewpointF,PressureIn,WindDirection,WindDirectionDegrees,WindSpeedMPH,WindSpeedGustMPH,Humidity,HourlyPrecipIn,Conditions,Clouds,dailyrainin,SolarRadiationWatts/m^2,SoftwareType,DateUTC
2013-02-16 00:00:00,27.4,25.9,29.80,South,173,0.0,1.0,94,0.00,,,0.00,0,Wunderground v.1.15,2013-02-16 05:00:00,
2013-02-16 00:05:00,27.3,25.8,29.79,South,173,0.0,1.0,94,0.00,,,0.00,0,Wunderground v.1.15,2013-02-16 05:05:00,
2013-02-16 00:15:00,27.4,25.9,29.80,South,173,0.0,1.0,94,0.00,,,0.00,0,Wunderground v.1.15,2013-02-16 05:15:00,
2013-02-16 00:20:00,27.3,25.8,29.80,South,173,0.0,1.0,94,0.00,,,0.00,0,Wunderground v.1.15,2013-02-16 05:20:00,
2013-02-16 00:30:00,27.5,26.3,29.80,South,173,0.0,1.0,95,0.00,,,0.00,0,Wunderground v.1.15,2013-02-16 05:30:00,
2013-02-16 00:40:00,27.7,26.5,29.80,South,173,0.0,1.0,95,0.00,,,0.00,0,Wunderground v.1.15,2013-02-16 05:40:00,
2013-02-16 00:45:00,27.7,26.5,29.80,South,173,0.0,1.0,95,0.00,,,0.00,0,Wunderground v.1.15,2013-02-16 05:45:00,
2013-02-16 00:50:00,27.8,26.6,29.80,South,173,0.0,1.0,95,0.00,,,0.00,0,Wunderground v.1.15,2013-02-16 05:50:00,
2013-02-16 00:55:00,27.9,26.7,29.80,South,173,0.0,1.0,95,0.00,,,0.00,0,Wunderground v.1.15,2013-02-16 05:55:00,
2013-02-16 01:00:00,28.1,26.9,29.80,South,173,0.0,1.0,95,0.00,,,0.00,0,Wunderground v.1.15,2013-02-16 06:00:00,
2013-02-16 01:05:00,28.1,26.9,29.79,South,173,0.0,1.0,95,0.00,,,0.00,0,Wunderground v.1.15,2013-02-16 06:05:00,
2013-02-16 01:15:00,28.2,27.0,29.79,South,173,0.0,1.0,95,0.00,,,0.00,0,Wunderground v.1.15,2013-02-16 06:15:00,
2013-02-16 01:20:00,28.3,27.1,29.79,South,173,0.0,1.0,95,0.00,,,0.00,0,Wunderground v.1.15,2013-02-16 06:20:00,
2013-02-16 01:25:00,28.4,27.2,29.80,South,173,0.0,1.0,95,0.00,,,0.00,0,Wunderground v.1.15,2013-02-16 06:25:00,
2013-02-16 01:30:00,28.5,27.3,29.80,South,173,0.0,1.0,95,0.00,,,0.00,0,Wunderground v.1.15,2013-02-16 06:30:00,
2013-02-16 01:35:00,28.8,27.5,29.80,South,173,0.0,1.0,95,0.00,,,0.00,0,Wunderground v.1.15,2013-02-16 06:35:00,
2013-02-16 01:45:00,29.0,27.7,29.80,South,173,0.0,1.0,95,0.00,,,0.00,0,Wunderground v.1.15,2013-02-16 06:45:00,
2013-02-16 01:50:00,29.1,27.8,29.80,South,173,0.0,1.0,95,0.00,,,0.00,0,Wunderground v.1.15,2013-02-16 06:50:00,
2013-02-16 02:00:00,29.1,27.8,29.79,South,173,0.0,1.0,95,0.00,,,0.00,0,Wunderground v.1.15,2013-02-16 07:00:00,
2013-02-16 02:05:00,29.2,27.9,29.79,South,173,0.0,1.0,95,0.00,,,0.00,0,Wunderground v.1.15,2013-02-16 07:05:00,
2013-02-16 02:15:00,29.3,28.0,29.80,South,173,0.0,1.0,95,0.00,,,0.00,0,Wunderground v.1.15,2013-02-16 07:15:00,
2013-02-16 02:20:00,29.4,28.1,29.79,South,173,0.0,1.0,95,0.00,,,0.00,0,Wunderground v.1.15,2013-02-16 07:20:00,
2013-02-16 02:25:00,29.5,28.2,29.80,South,173,0.0,1.0,95,0.00,,,0.00,0,Wunderground v.1.15,2013-02-16 07:25:00,
2013-02-16 02:30:00,29.6,28.3,29.80,South,173,0.0,1.0,95,0.00,,,0.00,0,Wunderground v.1.15,2013-02-16 07:30:00,
2013-02-16 02:40:00,29.8,28.5,29.80,South,173,0.0,1.0,95,0.00,,,0.00,0,Wunderground v.1.15,2013-02-16 07:40:00,
2013-02-16 02:45:00,29.9,28.6,29.78,South,173,0.0,1.0,95,0.00,,,0.00,0,Wunderground v.1.15,2013-02-16 07:45:00,
2013-02-16 02:50:00,30.1,28.8,29.76,SE,138,0.0,2.0,95,0.00,,,0.00,0,Wunderground v.1.15,2013-02-16 07:50:00,
2013-02-16 02:55:00,30.3,29.0,29.77,West,266,1.0,2.0,95,0.00,,,0.00,0,Wunderground v.1.15,2013-02-16 07:55:00,
2013-02-16 03:00:00,30.6,29.1,29.78,West,266,1.0,1.0,94,0.00,,,0.00,0,Wunderground v.1.15,2013-02-16 08:00:00,
2013-02-16 03:05:00,31.1,29.0,29.78,West,266,1.0,1.0,92,0.00,,,0.00,0,Wunderground v.1.15,2013-02-16 08:05:00,
2013-02-16 03:15:00,32.8,29.4,29.79,WNW,298,1.0,1.0,87,0.00,,,0.00,0,Wunderground v.1.15,2013-02-16 08:15:00,
2013-02-16 03:25:00,34.1,29.2,29.79,WNW,298,1.0,3.0,82,0.00,,,0.00,0,Wunderground v.1.15,2013-02-16 08:25:00,
2013-02-16 03:30:00,34.4,29.2,29.80,WNW,298,1.0,2.0,81,0.00,,,0.00,0,Wunderground v.1.15,2013-02-16 08:30:00,
2013-02-16 03:35:00,34.6,29.4,29.79,NW,306,2.0,2.0,81,0.00,,,0.00,0,Wunderground v.1.15,2013-02-16 08:35:00,
2013-02-16 03:40:00,34.7,29.2,29.79,WNW,303,2.0,2.0,80,0.00,,,0.00,0,Wunderground v.1.15,2013-02-16 08:40:00,
2013-02-16 03:45:00,34.8,29.3,29.79,NW,304,2.0,2.0,80,0.00,,,0.00,0,Wunderground v.1.15,2013-02-16 08:45:00,
2013-02-16 03:50:00,34.8,29.6,29.80,NW,304,2.0,2.0,81,0.00,,,0.00,0,Wunderground v.1.15,2013-02-16 08:50:00,
2013-02-16 04:00:00,34.4,30.1,29.80,NW,324,2.0,2.0,84,0.00,,,0.00,0,Wunderground v.1.15,2013-02-16 09:00:00,
2013-02-16 04:05:00,34.1,30.1,29.80,NW,311,2.0,2.0,85,0.00,,,0.00,0,Wunderground v.1.15,2013-02-16 09:05:00,
2013-02-16 04:15:00,33.6,30.1,29.80,WNW,298,1.0,2.0,87,0.00,,,0.00,0,Wunderground v.1.15,2013-02-16 09:15:00,
2013-02-16 04:25:00,33.3,30.4,29.80,NNW,335,1.0,1.0,89,0.00,,,0.00,0,Wunderground v.1.15,2013-02-16 09:25:00,
2013-02-16 04:30:00,33.2,30.3,29.80,NW,309,1.0,2.0,89,0.00,,,0.00,0,Wunderground v.1.15,2013-02-16 09:30:00,
2013-02-16 04:40:00,32.9,30.6,29.80,NW,326,1.0,1.0,91,0.00,,,0.00,0,Wunderground v.1.15,2013-02-16 09:40:00,
2013-02-16 04:45:00,32.8,30.5,29.80,NW,315,1.0,1.0,91,0.00,,,0.00,0,Wunderground v.1.15,2013-02-16 09:45:00,
2013-02-16 04:50:00,32.7,30.6,29.79,NW,315,0.0,1.0,92,0.00,,,0.00,0,Wunderground v.1.15,2013-02-16 09:50:00,
2013-02-16 04:55:00,32.6,30.5,29.79,NW,315,0.0,1.0,92,0.00,,,0.00,0,Wunderground v.1.15,2013-02-16 09:55:00,
2013-02-16 05:00:00,32.5,30.7,29.78,NW,315,0.0,1.0,93,0.00,,,0.00,0,Wunderground v.1.15,2013-02-16 10:00:00,
2013-02-16 05:05:00,32.4,30.6,29.79,NW,315,0.0,1.0,93,0.00,,,0.00,0,Wunderground v.1.15,2013-02-16 10:05:00,
2013-02-16 05:15:00,32.3,30.8,29.80,NW,315,0.0,1.0,94,0.00,,,0.00,0,Wunderground v.1.15,2013-02-16 10:15:00,
2013-02-16 05:20:00,32.3,30.8,29.80,NW,315,0.0,1.0,94,0.00,,,0.00,0,Wunderground v.1.15,2013-02-16 10:20:00,
2013-02-16 05:25:00,32.3,30.8,29.80,NW,315,0.0,1.0,94,0.00,,,0.00,0,Wunderground v.1.15,2013-02-16 10:25:00,
2013-02-16 05:30:00,32.2,30.7,29.80,East,80,0.0,1.0,94,0.00,,,0.00,0,Wunderground v.1.15,2013-02-16 10:30:00,
2013-02-16 05:35:00,32.2,30.7,29.80,East,79,0.0,1.0,94,0.00,,,0.00,0,Wunderground v.1.15,2013-02-16 10:35:00,
2013-02-16 05:45:00,32.1,30.6,29.79,East,80,0.0,1.0,94,0.00,,,0.00,0,Wunderground v.1.15,2013-02-16 10:45:00,
2013-02-16 05:50:00,32.1,30.8,29.79,East,79,0.0,1.0,95,0.00,,,0.00,0,Wunderground v.1.15,2013-02-16 10:50:00,
2013-02-16 05:55:00,32.1,30.8,29.79,East,80,0.0,1.0,95,0.00,,,0.00,0,Wunderground v.1.15,2013-02-16 10:55:00,
2013-02-16 06:05:00,32.0,30.7,29.79,East,80,0.0,1.0,95,0.00,,,0.00,0,Wunderground v.1.15,2013-02-16 11:05:00,
2013-02-16 06:15:00,31.9,30.6,29.79,East,80,0.0,1.0,95,0.00,,,0.00,0,Wunderground v.1.15,2013-02-16 11:15:00,
2013-02-16 06:20:00,31.9,30.6,29.79,East,79,0.0,1.0,95,0.00,,,0.00,0,Wunderground v.1.15,2013-02-16 11:20:00,
2013-02-16 06:25:00,31.8,30.5,29.79,East,79,0.0,1.0,95,0.00,,,0.00,0,Wunderground v.1.15,2013-02-16 11:25:00,
2013-02-16 06:35:00,31.8,30.5,29.79,East,80,0.0,1.0,95,0.00,,,0.00,0,Wunderground v.1.15,2013-02-16 11:35:00,
2013-02-16 06:40:00,31.8,30.5,29.79,East,79,0.0,1.0,95,0.00,,,0.00,0,Wunderground v.1.15,2013-02-16 11:40:00,
2013-02-16 06:50:00,31.8,30.5,29.79,East,79,0.0,1.0,95,0.00,,,0.00,0,Wunderground v.1.15,2013-02-16 11:50:00,
2013-02-16 06:55:00,31.8,30.5,29.79,East,80,0.0,1.0,95,0.00,,,0.00,0,Wunderground v.1.15,2013-02-16 11:55:00,
2013-02-16 07:00:00,31.8,30.5,29.79,East,79,0.0,1.0,95,0.00,,,0.00,0,Wunderground v.1.15,2013-02-16 12:00:00,
2013-02-16 07:05:00,31.7,30.4,29.79,East,79,0.0,1.0,95,0.00,,,0.00,0,Wunderground v.1.15,2013-02-16 12:05:00,
2013-02-16 07:15:00,31.7,30.4,29.79,East,79,0.0,1.0,95,0.00,,,0.00,5,Wunderground v.1.15,2013-02-16 12:15:00,
2013-02-16 07:20:00,31.7,30.4,29.79,East,80,0.0,1.0,95,0.00,,,0.00,5,Wunderground v.1.15,2013-02-16 12:20:00,
2013-02-16 07:25:00,31.7,30.4,29.80,East,80,0.0,1.0,95,0.00,,,0.00,5,Wunderground v.1.15,2013-02-16 12:25:00,
2013-02-16 07:35:00,31.6,30.3,29.79,East,79,0.0,1.0,95,0.00,,,0.00,9,Wunderground v.1.15,2013-02-16 12:35:00,
2013-02-16 07:40:00,31.6,30.3,29.79,East,79,0.0,1.0,95,0.00,,,0.00,9,Wunderground v.1.15,2013-02-16 12:40:00,
2013-02-16 07:45:00,31.6,30.3,29.79,East,79,0.0,1.0,95,0.00,,,0.00,12,Wunderground v.1.15,2013-02-16 12:45:00,
2013-02-16 07:50:00,31.6,30.3,29.80,East,79,0.0,1.0,95,0.00,,,0.00,11,Wunderground v.1.15,2013-02-16 12:50:00,
2013-02-16 07:55:00,31.6,30.3,29.80,East,79,0.0,1.0,95,0.00,,,0.00,12,Wunderground v.1.15,2013-02-16 12:55:00,
2013-02-16 08:05:00,31.8,30.8,29.80,East,80,0.0,1.0,96,0.00,,,0.00,23,Wunderground v.1.15,2013-02-16 13:05:00,
2013-02-16 08:15:00,32.0,31.0,29.80,East,79,0.0,1.0,96,0.00,,,0.00,21,Wunderground v.1.15,2013-02-16 13:15:00,
2013-02-16 08:25:00,32.1,31.1,29.80,East,80,0.0,1.0,96,0.00,,,0.00,28,Wunderground v.1.15,2013-02-16 13:25:00,
2013-02-16 08:30:00,32.3,31.3,29.80,East,79,0.0,1.0,96,0.00,,,0.00,35,Wunderground v.1.15,2013-02-16 13:30:00,
2013-02-16 08:35:00,32.3,31.3,29.80,East,79,0.0,1.0,96,0.00,,,0.00,42,Wunderground v.1.15,2013-02-16 13:35:00,
2013-02-16 08:40:00,32.4,31.1,29.80,East,79,0.0,1.0,95,0.00,,,0.00,47,Wunderground v.1.15,2013-02-16 13:40:00,
2013-02-16 08:50:00,32.5,31.2,29.80,NW,315,0.0,1.0,95,0.00,,,0.00,62,Wunderground v.1.15,2013-02-16 13:50:00,
2013-02-16 08:55:00,32.7,31.7,29.80,NW,315,0.0,1.0,96,0.00,,,0.01,79,Wunderground v.1.15,2013-02-16 13:55:00,
2013-02-16 09:00:00,32.8,31.5,29.80,NW,315,0.0,1.0,95,0.00,,,0.01,100,Wunderground v.1.15,2013-02-16 14:00:00,
2013-02-16 09:05:00,33.0,31.7,29.80,NW,315,0.0,1.0,95,0.00,,,0.01,114,Wunderground v.1.15,2013-02-16 14:05:00,
2013-02-16 09:15:00,33.1,31.8,29.80,NW,315,0.0,1.0,95,0.00,,,0.02,148,Wunderground v.1.15,2013-02-16 14:15:00,
2013-02-16 09:20:00,33.1,31.8,29.79,NW,315,0.0,1.0,95,0.00,,,0.02,151,Wunderground v.1.15,2013-02-16 14:20:00,
2013-02-16 09:30:00,33.3,32.0,29.79,NW,315,0.0,1.0,95,0.00,,,0.02,142,Wunderground v.1.15,2013-02-16 14:30:00,
2013-02-16 09:35:00,33.4,32.1,29.79,NW,315,0.0,1.0,95,0.00,,,0.02,169,Wunderground v.1.15,2013-02-16 14:35:00,
2013-02-16 09:45:00,33.5,32.0,29.78,NW,315,0.0,1.0,94,0.00,,,0.03,199,Wunderground v.1.15,2013-02-16 14:45:00,
2013-02-16 09:55:00,33.7,31.9,29.78,NW,315,1.0,2.0,93,0.00,,,0.03,246,Wunderground v.1.15,2013-02-16 14:55:00,
2013-02-16 10:00:00,33.9,31.8,29.78,NW,315,1.0,1.0,92,0.00,,,0.03,287,Wunderground v.1.15,2013-02-16 15:00:00,
2013-02-16 10:05:00,34.4,32.3,29.78,WNW,289,1.0,1.0,92,0.00,,,0.03,272,Wunderground v.1.15,2013-02-16 15:05:00,
2013-02-16 10:15:00,34.8,31.9,29.78,NNW,348,1.0,2.0,89,0.00,,,0.03,265,Wunderground v.1.15,2013-02-16 15:15:00,
2013-02-16 10:20:00,35.2,32.3,29.78,WNW,292,1.0,1.0,89,0.00,,,0.03,338,Wunderground v.1.15,2013-02-16 15:20:00,
2013-02-16 10:25:00,35.6,32.1,29.78,WNW,292,1.0,1.0,87,0.00,,,0.03,223,Wunderground v.1.15,2013-02-16 15:25:00,
2013-02-16 10:30:00,35.4,31.3,29.78,WNW,292,1.0,1.0,85,0.00,,,0.03,190,Wunderground v.1.15,2013-02-16 15:30:00,
2013-02-16 10:35:00,35.4,31.3,29.78,WNW,292,1.0,1.0,85,0.00,,,0.03,181,Wunderground v.1.15,2013-02-16 15:35:00,
2013-02-16 10:40:00,35.5,31.4,29.78,WNW,292,1.0,1.0,85,0.00,,,0.03,183,Wunderground v.1.15,2013-02-16 15:40:00,
2013-02-16 10:50:00,35.4,31.0,29.78,WNW,288,1.0,2.0,84,0.00,,,0.03,197,Wunderground v.1.15,2013-02-16 15:50:00,
2013-02-16 10:55:00,35.4,31.0,29.78,NW,304,1.0,2.0,84,0.00,,,0.03,227,Wunderground v.1.15,2013-02-16 15:55:00,
2013-02-16 11:05:00,35.5,31.1,29.77,WNW,300,1.0,1.0,84,0.00,,,0.03,274,Wunderground v.1.15,2013-02-16 16:05:00,
2013-02-16 11:15:00,35.8,31.1,29.78,WNW,300,1.0,1.0,83,0.00,,,0.03,267,Wunderground v.1.15,2013-02-16 16:15:00,
2013-02-16 11:20:00,35.9,31.2,29.77,WNW,300,1.0,1.0,83,0.00,,,0.03,236,Wunderground v.1.15,2013-02-16 16:20:00,
2013-02-16 11:30:00,36.0,31.0,29.77,WNW,300,1.0,1.0,82,0.00,,,0.03,229,Wunderground v.1.15,2013-02-16 16:30:00,
2013-02-16 11:35:00,36.0,31.0,29.77,NW,306,1.0,1.0,82,0.00,,,0.03,234,Wunderground v.1.15,2013-02-16 16:35:00,
2013-02-16 11:40:00,36.1,30.8,29.77,NW,306,1.0,1.0,81,0.00,,,0.03,241,Wunderground v.1.15,2013-02-16 16:40:00,
2013-02-16 11:45:00,36.1,30.5,29.76,WNW,300,1.0,2.0,80,0.00,,,0.03,236,Wunderground v.1.15,2013-02-16 16:45:00,
2013-02-16 11:50:00,36.0,30.7,29.76,West,277,1.0,1.0,81,0.00,,,0.03,225,Wunderground v.1.15,2013-02-16 16:50:00,
2013-02-16 11:55:00,36.0,30.7,29.76,NW,304,1.0,1.0,81,0.00,,,0.03,216,Wunderground v.1.15,2013-02-16 16:55:00,
2013-02-16 12:00:00,36.1,30.8,29.75,NW,304,1.0,2.0,81,0.00,,,0.03,221,Wunderground v.1.15,2013-02-16 17:00:00,
2013-02-16 12:05:00,36.2,30.6,29.75,NW,304,1.0,2.0,80,0.00,,,0.03,267,Wunderground v.1.15,2013-02-16 17:05:00,
2013-02-16 12:15:00,36.8,31.2,29.75,NW,304,0.0,1.0,80,0.00,,,0.03,290,Wunderground v.1.15,2013-02-16 17:15:00,
2013-02-16 12:20:00,36.9,30.7,29.75,NW,309,1.0,2.0,78,0.00,,,0.03,287,Wunderground v.1.15,2013-02-16 17:20:00,
2013-02-16 12:25:00,37.0,30.8,29.75,WNW,283,1.0,2.0,78,0.00,,,0.03,243,Wunderground v.1.15,2013-02-16 17:25:00,
2013-02-16 12:30:00,37.0,30.5,29.75,WNW,283,1.0,1.0,77,0.00,,,0.03,218,Wunderground v.1.15,2013-02-16 17:30:00,
2013-02-16 12:35:00,37.0,30.8,29.74,WNW,294,1.0,1.0,78,0.00,,,0.03,216,Wunderground v.1.15,2013-02-16 17:35:00,
2013-02-16 12:40:00,37.1,30.9,29.74,WNW,294,0.0,1.0,78,0.00,,,0.03,227,Wunderground v.1.15,2013-02-16 17:40:00,
2013-02-16 12:50:00,37.2,30.7,29.74,South,183,1.0,1.0,77,0.00,,,0.03,251,Wunderground v.1.15,2013-02-16 17:50:00,
2013-02-16 12:55:00,37.2,30.3,29.73,ENE,77,1.0,1.0,76,0.00,,,0.03,257,Wunderground v.1.15,2013-02-16 17:55:00,
2013-02-16 13:00:00,37.3,30.4,29.73,ENE,76,1.0,2.0,76,0.00,,,0.03,257,Wunderground v.1.15,2013-02-16 18:00:00,
2013-02-16 13:05:00,37.2,29.3,29.73,NE,53,1.0,2.0,73,0.00,,,0.03,267,Wunderground v.1.15,2013-02-16 18:05:00,
2013-02-16 13:15:00,37.5,30.3,29.73,NW,312,1.0,1.0,75,0.00,,,0.03,197,Wunderground v.1.15,2013-02-16 18:15:00,
2013-02-16 13:20:00,37.4,30.2,29.73,NW,316,1.0,1.0,75,0.00,,,0.03,213,Wunderground v.1.15,2013-02-16 18:20:00,
2013-02-16 13:25:00,37.4,29.5,29.73,NW,304,1.0,1.0,73,0.00,,,0.03,237,Wunderground v.1.15,2013-02-16 18:25:00,
2013-02-16 13:35:00,37.5,29.3,29.72,NW,310,1.0,1.0,72,0.00,,,0.03,253,Wunderground v.1.15,2013-02-16 18:35:00,
2013-02-16 13:40:00,37.8,29.6,29.72,NW,310,1.0,1.0,72,0.00,,,0.03,271,Wunderground v.1.15,2013-02-16 18:40:00,
2013-02-16 13:45:00,38.1,30.2,29.72,NW,310,1.0,2.0,73,0.00,,,0.03,274,Wunderground v.1.15,2013-02-16 18:45:00,
2013-02-16 13:50:00,38.1,29.9,29.72,WNW,289,1.0,1.0,72,0.00,,,0.03,202,Wunderground v.1.15,2013-02-16 18:50:00,
2013-02-16 13:55:00,38.2,30.0,29.72,WNW,288,1.0,1.0,72,0.00,,,0.03,171,Wunderground v.1.15,2013-02-16 18:55:00,
2013-02-16 14:00:00,38.2,29.6,29.72,WNW,288,0.0,1.0,71,0.00,,,0.03,192,Wunderground v.1.15,2013-02-16 19:00:00,
2013-02-16 14:05:00,38.2,29.6,29.72,WNW,289,0.0,1.0,71,0.00,,,0.03,200,Wunderground v.1.15,2013-02-16 19:05:00,
2013-02-16 14:15:00,37.9,29.3,29.71,WNW,289,1.0,1.0,71,0.00,,,0.03,163,Wunderground v.1.15,2013-02-16 19:15:00,
2013-02-16 14:20:00,38.0,29.8,29.71,WNW,289,1.0,1.0,72,0.00,,,0.03,171,Wunderground v.1.15,2013-02-16 19:20:00,
2013-02-16 14:25:00,38.1,29.2,29.71,WNW,289,0.0,1.0,70,0.00,,,0.03,172,Wunderground v.1.15,2013-02-16 19:25:00,
2013-02-16 14:30:00,38.2,29.3,29.71,NW,319,0.0,3.0,70,0.00,,,0.03,167,Wunderground v.1.15,2013-02-16 19:30:00,
2013-02-16 14:35:00,38.0,28.7,29.71,NW,326,1.0,3.0,69,0.00,,,0.03,149,Wunderground v.1.15,2013-02-16 19:35:00,
2013-02-16 14:40:00,38.0,29.1,29.71,NW,326,0.0,1.0,70,0.00,,,0.03,137,Wunderground v.1.15,2013-02-16 19:40:00,
2013-02-16 14:45:00,37.9,28.6,29.71,NW,326,0.0,1.0,69,0.00,,,0.03,128,Wunderground v.1.15,2013-02-16 19:45:00,
2013-02-16 14:55:00,37.9,28.3,29.71,NW,326,1.0,1.0,68,0.00,,,0.03,148,Wunderground v.1.15,2013-02-16 19:55:00,
2013-02-16 15:00:00,37.8,28.5,29.70,WNW,286,1.0,2.0,69,0.00,,,0.03,137,Wunderground v.1.15,2013-02-16 20:00:00,
2013-02-16 15:05:00,38.0,28.7,29.70,West,279,1.0,2.0,69,0.00,,,0.03,146,Wunderground v.1.15,2013-02-16 20:05:00,
2013-02-16 15:15:00,38.0,28.4,29.70,West,279,1.0,1.0,68,0.00,,,0.03,118,Wunderground v.1.15,2013-02-16 20:15:00,
2013-02-16 15:20:00,38.1,28.1,29.70,West,279,0.0,1.0,67,0.00,,,0.03,125,Wunderground v.1.15,2013-02-16 20:20:00,
2013-02-16 15:25:00,38.2,28.6,29.70,West,279,0.0,1.0,68,0.00,,,0.03,134,Wunderground v.1.15,2013-02-16 20:25:00,
2013-02-16 15:35:00,38.3,27.9,29.69,West,279,0.0,1.0,66,0.00,,,0.03,111,Wunderground v.1.15,2013-02-16 20:35:00,
2013-02-16 15:40:00,38.3,27.9,29.69,West,279,0.0,1.0,66,0.00,,,0.03,128,Wunderground v.1.15,2013-02-16 20:40:00,
2013-02-16 15:45:00,38.4,28.4,29.69,West,279,0.0,1.0,67,0.00,,,0.03,134,Wunderground v.1.15,2013-02-16 20:45:00,
2013-02-16 15:50:00,38.5,28.1,29.69,West,279,0.0,2.0,66,0.00,,,0.03,127,Wunderground v.1.15,2013-02-16 20:50:00,
2013-02-16 15:55:00,38.5,27.7,29.69,West,279,0.0,2.0,65,0.00,,,0.03,121,Wunderground v.1.15,2013-02-16 20:55:00,
2013-02-16 16:00:00,38.5,28.1,29.69,West,279,0.0,1.0,66,0.00,,,0.03,105,Wunderground v.1.15,2013-02-16 21:00:00,
2013-02-16 16:05:00,38.6,27.8,29.68,West,279,0.0,1.0,65,0.00,,,0.03,95,Wunderground v.1.15,2013-02-16 21:05:00,
2013-02-16 16:15:00,38.6,27.8,29.68,West,279,0.0,1.0,65,0.00,,,0.03,65,Wunderground v.1.15,2013-02-16 21:15:00,
2013-02-16 16:20:00,38.5,27.0,29.68,West,279,0.0,1.0,63,0.00,,,0.03,62,Wunderground v.1.15,2013-02-16 21:20:00,
2013-02-16 16:25:00,38.4,27.3,29.68,West,279,0.0,1.0,64,0.00,,,0.03,56,Wunderground v.1.15,2013-02-16 21:25:00,
2013-02-16 16:30:00,38.3,27.2,29.67,West,279,0.0,1.0,64,0.00,,,0.03,53,Wunderground v.1.15,2013-02-16 21:30:00,
2013-02-16 16:35:00,38.3,27.9,29.67,West,279,0.0,1.0,66,0.00,,,0.03,49,Wunderground v.1.15,2013-02-16 21:35:00,
2013-02-16 16:40:00,38.2,27.1,29.67,West,279,0.0,1.0,64,0.00,,,0.03,40,Wunderground v.1.15,2013-02-16 21:40:00,
2013-02-16 16:45:00,38.1,27.0,29.67,West,279,0.0,1.0,64,0.00,,,0.03,37,Wunderground v.1.15,2013-02-16 21:45:00,
2013-02-16 16:50:00,38.0,26.1,29.67,West,279,0.0,1.0,62,0.00,,,0.03,25,Wunderground v.1.15,2013-02-16 21:50:00,
2013-02-16 17:00:00,37.7,25.8,29.67,West,279,0.0,1.0,62,0.00,,,0.03,19,Wunderground v.1.15,2013-02-16 22:00:00,
2013-02-16 17:05:00,37.5,26.0,29.67,West,279,0.0,1.0,63,0.00,,,0.03,12,Wunderground v.1.15,2013-02-16 22:05:00,
2013-02-16 17:15:00,37.3,25.8,29.68,West,279,0.0,1.0,63,0.00,,,0.03,0,Wunderground v.1.15,2013-02-16 22:15:00,
2013-02-16 17:25:00,37.1,25.3,29.68,West,279,0.0,1.0,62,0.00,,,0.03,0,Wunderground v.1.15,2013-02-16 22:25:00,
2013-02-16 17:30:00,37.0,25.2,29.68,West,279,0.0,1.0,62,0.00,,,0.03,0,Wunderground v.1.15,2013-02-16 22:30:00,
2013-02-16 17:40:00,36.8,24.2,29.68,West,279,0.0,1.0,60,0.00,,,0.03,0,Wunderground v.1.15,2013-02-16 22:40:00,
2013-02-16 17:45:00,36.8,25.0,29.68,West,279,1.0,2.0,62,0.00,,,0.03,0,Wunderground v.1.15,2013-02-16 22:45:00,
2013-02-16 17:50:00,36.6,24.4,29.68,West,279,1.0,1.0,61,0.00,,,0.03,0,Wunderground v.1.15,2013-02-16 22:50:00,
2013-02-16 17:55:00,36.6,24.4,29.69,NW,321,1.0,1.0,61,0.00,,,0.03,0,Wunderground v.1.15,2013-02-16 22:55:00,
2013-02-16 18:00:00,36.5,24.3,29.68,NW,321,1.0,1.0,61,0.00,,,0.03,0,Wunderground v.1.15,2013-02-16 23:00:00,
2013-02-16 18:05:00,36.3,23.7,29.68,NW,321,1.0,1.0,60,0.00,,,0.03,0,Wunderground v.1.15,2013-02-16 23:05:00,
2013-02-16 18:15:00,36.1,23.5,29.69,NW,321,1.0,1.0,60,0.00,,,0.03,0,Wunderground v.1.15,2013-02-16 23:15:00,
2013-02-16 18:20:00,36.0,23.8,29.69,NW,321,0.0,1.0,61,0.00,,,0.03,0,Wunderground v.1.15,2013-02-16 23:20:00,
2013-02-16 18:25:00,35.8,23.7,29.69,NW,321,0.0,2.0,61,0.00,,,0.03,0,Wunderground v.1.15,2013-02-16 23:25:00,
2013-02-16 18:30:00,35.7,23.6,29.69,NW,321,0.0,1.0,61,0.00,,,0.03,0,Wunderground v.1.15,2013-02-16 23:30:00,
2013-02-16 18:35:00,35.7,23.2,29.69,NE,36,1.0,3.0,60,0.00,,,0.03,0,Wunderground v.1.15,2013-02-16 23:35:00,
2013-02-16 18:40:00,35.5,23.0,29.68,NNW,343,1.0,1.0,60,0.00,,,0.03,0,Wunderground v.1.15,2013-02-16 23:40:00,
2013-02-16 18:50:00,35.2,22.7,29.69,NW,316,1.0,2.0,60,0.00,,,0.03,0,Wunderground v.1.15,2013-02-16 23:50:00,
2013-02-16 18:55:00,35.1,22.2,29.69,WNW,298,1.0,2.0,59,0.00,,,0.03,0,Wunderground v.1.15,2013-02-16 23:55:00,
2013-02-16 19:05:00,34.8,22.3,29.69,WNW,298,1.0,2.0,60,0.00,,,0.03,0,Wunderground v.1.15,2013-02-17 00:05:00,
2013-02-16 19:15:00,34.6,22.1,29.68,WNW,300,1.0,1.0,60,0.00,,,0.03,0,Wunderground v.1.15,2013-02-17 00:15:00,
2013-02-16 19:20:00,34.5,22.0,29.68,WNW,301,1.0,1.0,60,0.00,,,0.03,0,Wunderground v.1.15,2013-02-17 00:20:00,
2013-02-16 19:25:00,34.3,21.8,29.68,WNW,301,0.0,1.0,60,0.00,,,0.03,0,Wunderground v.1.15,2013-02-17 00:25:00,
2013-02-16 19:30:00,34.2,21.7,29.68,NW,309,0.0,1.0,60,0.00,,,0.03,0,Wunderground v.1.15,2013-02-17 00:30:00,
2013-02-16 19:40:00,33.9,21.1,29.67,NW,309,0.0,1.0,59,0.00,,,0.03,0,Wunderground v.1.15,2013-02-17 00:40:00,
2013-02-16 19:45:00,33.9,21.5,29.67,NW,319,0.0,1.0,60,0.00,,,0.03,0,Wunderground v.1.15,2013-02-17 00:45:00,
2013-02-16 19:50:00,33.7,20.5,29.67,WNW,294,1.0,1.0,58,0.00,,,0.03,0,Wunderground v.1.15,2013-02-17 00:50:00,
2013-02-16 19:55:00,33.6,20.8,29.67,NW,314,1.0,1.0,59,0.00,,,0.03,0,Wunderground v.1.15,2013-02-17 00:55:00,
2013-02-16 20:00:00,33.5,20.7,29.67,SSW,207,1.0,1.0,59,0.00,,,0.03,0,Wunderground v.1.15,2013-02-17 01:00:00,
2013-02-16 20:05:00,33.4,21.0,29.67,NW,319,1.0,1.0,60,0.00,,,0.03,0,Wunderground v.1.15,2013-02-17 01:05:00,
2013-02-16 20:15:00,33.2,20.0,29.66,WNW,290,1.0,2.0,58,0.00,,,0.03,0,Wunderground v.1.15,2013-02-17 01:15:00,
2013-02-16 20:20:00,33.1,19.9,29.66,WNW,290,1.0,1.0,58,0.00,,,0.03,0,Wunderground v.1.15,2013-02-17 01:20:00,
2013-02-16 20:25:00,33.0,20.2,29.66,WNW,297,1.0,1.0,59,0.00,,,0.03,0,Wunderground v.1.15,2013-02-17 01:25:00,
2013-02-16 20:30:00,32.9,20.1,29.66,WNW,297,1.0,1.0,59,0.00,,,0.03,0,Wunderground v.1.15,2013-02-17 01:30:00,
2013-02-16 20:35:00,32.8,20.0,29.65,NW,316,1.0,1.0,59,0.00,,,0.03,0,Wunderground v.1.15,2013-02-17 01:35:00,
2013-02-16 20:40:00,32.7,19.9,29.66,NW,319,1.0,1.0,59,0.00,,,0.03,0,Wunderground v.1.15,2013-02-17 01:40:00,
2013-02-16 20:45:00,32.6,19.8,29.66,NW,320,1.0,1.0,59,0.00,,,0.03,0,Wunderground v.1.15,2013-02-17 01:45:00,
2013-02-16 20:50:00,32.5,19.7,29.65,North,5,1.0,1.0,59,0.00,,,0.03,0,Wunderground v.1.15,2013-02-17 01:50:00,
2013-02-16 21:00:00,32.4,19.3,29.66,WNW,287,1.0,1.0,58,0.00,,,0.03,0,Wunderground v.1.15,2013-02-17 02:00:00,
2013-02-16 21:05:00,32.4,19.7,29.65,WNW,294,1.0,1.0,59,0.00,,,0.03,0,Wunderground v.1.15,2013-02-17 02:05:00,
2013-02-16 21:15:00,32.3,19.2,29.66,WNW,289,1.0,1.0,58,0.00,,,0.03,0,Wunderground v.1.15,2013-02-17 02:15:00,
2013-02-16 21:25:00,32.1,19.8,29.65,NW,307,1.0,2.0,60,0.00,,,0.03,0,Wunderground v.1.15,2013-02-17 02:25:00,
2013-02-16 21:30:00,32.0,19.3,29.65,NW,313,1.0,1.0,59,0.00,,,0.03,0,Wunderground v.1.15,2013-02-17 02:30:00,
2013-02-16 21:35:00,32.0,18.9,29.65,NW,313,1.0,1.0,58,0.00,,,0.03,0,Wunderground v.1.15,2013-02-17 02:35:00,
2013-02-16 21:45:00,31.8,19.1,29.65,NW,306,1.0,1.0,59,0.00,,,0.03,0,Wunderground v.1.15,2013-02-17 02:45:00,
2013-02-16 21:50:00,31.7,19.4,29.65,WNW,303,1.0,1.0,60,0.00,,,0.03,0,Wunderground v.1.15,2013-02-17 02:50:00,
2013-02-16 21:55:00,31.7,19.0,29.64,NW,315,1.0,1.0,59,0.00,,,0.03,0,Wunderground v.1.15,2013-02-17 02:55:00,
2013-02-16 22:00:00,31.6,18.5,29.65,NW,315,1.0,2.0,58,0.00,,,0.03,0,Wunderground v.1.15,2013-02-17 03:00:00,
2013-02-16 22:05:00,31.5,18.4,29.64,WNW,298,1.0,2.0,58,0.00,,,0.03,0,Wunderground v.1.15,2013-02-17 03:05:00,
2013-02-16 22:15:00,31.4,18.7,29.64,West,274,1.0,2.0,59,0.00,,,0.03,0,Wunderground v.1.15,2013-02-17 03:15:00,
2013-02-16 22:20:00,31.3,18.6,29.63,West,274,1.0,1.0,59,0.00,,,0.03,0,Wunderground v.1.15,2013-02-17 03:20:00,
2013-02-16 22:25:00,31.2,18.9,29.63,West,274,1.0,1.0,60,0.00,,,0.03,0,Wunderground v.1.15,2013-02-17 03:25:00,
2013-02-16 22:30:00,31.1,18.0,29.63,NW,304,1.0,1.0,58,0.00,,,0.03,0,Wunderground v.1.15,2013-02-17 03:30:00,
2013-02-16 22:35:00,31.0,17.9,29.62,NW,304,1.0,1.0,58,0.00,,,0.03,0,Wunderground v.1.15,2013-02-17 03:35:00,
2013-02-16 22:40:00,30.8,18.1,29.62,NW,314,1.0,1.0,59,0.00,,,0.03,0,Wunderground v.1.15,2013-02-17 03:40:00,
2013-02-16 22:45:00,30.7,18.4,29.62,NW,314,1.0,1.0,60,0.00,,,0.03,0,Wunderground v.1.15,2013-02-17 03:45:00,
2013-02-16 22:50:00,30.6,18.7,29.61,NNW,330,1.0,1.0,61,0.00,,,0.03,0,Wunderground v.1.15,2013-02-17 03:50:00,
2013-02-16 23:00:00,30.3,18.8,29.61,NW,305,1.0,1.0,62,0.00,,,0.03,0,Wunderground v.1.15,2013-02-17 04:00:00,
2013-02-16 23:05:00,30.1,19.4,29.60,WNW,300,1.0,1.0,64,0.00,,,0.03,0,Wunderground v.1.15,2013-02-17 04:05:00,
2013-02-16 23:15:00,29.8,19.8,29.60,NW,309,1.0,2.0,66,0.00,,,0.03,0,Wunderground v.1.15,2013-02-17 04:15:00,
2013-02-16 23:20:00,29.7,19.7,29.59,NW,307,1.0,2.0,66,0.00,,,0.03,0,Wunderground v.1.15,2013-02-17 04:20:00,
2013-02-16 23:25:00,29.6,20.3,29.59,NNW,348,1.0,2.0,68,0.00,,,0.03,0,Wunderground v.1.15,2013-02-17 04:25:00,
2013-02-16 23:30:00,29.4,20.1,29.59,NW,317,1.0,1.0,68,0.00,,,0.03,0,Wunderground v.1.15,2013-02-17 04:30:00,
2013-02-16 23:35:00,29.3,20.0,29.59,NW,319,1.0,1.0,68,0.00,,,0.03,0,Wunderground v.1.15,2013-02-17 04:35:00,
2013-02-16 23:45:00,29.3,20.0,29.59,WNW,303,1.0,1.0,68,0.00,,,0.03,0,Wunderground v.1.15,2013-02-17 04:45:00,
2013-02-16 23:50:00,29.2,19.9,29.58,WNW,303,1.0,1.0,68,0.00,,,0.03,0,Wunderground v.1.15,2013-02-17 04:50:00,
2013-02-16 23:55:00,29.1,19.5,29.59,WNW,303,1.0,2.0,67,0.00,,,0.03,0,Wunderground v.1.15,2013-02-17 04:55:00,